Location: Clinton NY
(43.0598°N, 75.3602°W)
Time: 12:01:04
(UTC-04:00)

Amateur Radio Satellites - All Passes

Search period start: 25 October 2014 11:31
Search period end: 26 October 2014 11:31
Location: Clinton NY, 43.0598°N, 75.3602°W

Satellite Date Start Highest point End Downlink Frequencies (MHz)
Time Altitude Azimuth
FUNcube-1 25 Oct 11:48:58 11:53:08 55° 287° (WNW) 11:57:13 145.950 - 145.970 MHz USB
Oscar 11 25 Oct 11:50:19 11:53:48 24° 293° (WNW) 11:57:16 145.825 FM, Beacon 2401.500 USB
ISS 25 Oct 12:22:52 12:25:40 25° 136° (SE) 12:28:29 145.800 FM
Sapphire 25 Oct 12:30:15 12:35:21 39° 51° (NE) 12:40:26 437.095 MHz 1200 baud AX-25 AFSK
Oscar 19 25 Oct 12:34:22 12:38:14 22° 63° (ENE) 12:42:07 437.125 CW, 437.150 USB
JAS-1B 25 Oct 12:41:01 12:45:33 24° 62° (ENE) 12:50:00 435.800 - 435.900 CW/SSB
ZACube-1 25 Oct 12:41:46 12:44:28 17° 296° (WNW) 12:47:08 437.345 MHz
Oscar 10/S400 25 Oct 12:46:21 13:03:09 27° 150° (SSE) 13:19:09 145.825 - 145.975 CW/USB, Beacon 145.810 USB
PCSat 25 Oct 12:52:36 12:58:01 62° 56° (ENE) 13:03:22 145.825 MHz
AO-27 25 Oct 12:54:42 12:57:37 15° 59° (ENE) 13:00:32 436.795 MHz FM
SO-50 25 Oct 12:55:09 12:59:28 49° 118° (ESE) 13:03:56 436.795 FM
KITSAT 1 25 Oct 12:56:45 13:04:51 84° 302° (WNW) 13:12:59 435.175 FM
AO-Echo 25 Oct 13:10:30 13:14:22 24° 64° (ENE) 13:18:21 ?
Oscar 16 25 Oct 13:18:48 13:23:50 55° 71° (ENE) 13:28:52 437.025 USB, Beacon 2401.1428
Uribyol 2 25 Oct 13:39:45 13:44:32 38° 68° (ENE) 13:49:21 436.500 FM
ITAMSAT 1 25 Oct 13:45:52 13:50:43 41° 68° (ENE) 13:55:35 435.822 SSB
ISS 25 Oct 13:58:59 14:02:13 46° 333° (NNW) 14:05:27 145.800 FM
Gurwin Techsat 1B 25 Oct 14:09:27 14:14:15 36° 67° (ENE) 14:19:03 435.225 FM
Oscar 19 25 Oct 14:12:15 14:17:14 50° 260° (W) 14:22:15 437.125 CW, 437.150 USB
Sapphire 25 Oct 14:13:52 14:18:41 33° 250° (WSW) 14:23:27 437.095 MHz 1200 baud AX-25 AFSK
UOSAT-12 25 Oct 14:15:52 14:19:56 31° 114° (ESE) 14:24:05 437.025 FM, 437.400 FM
TMSAT-1 25 Oct 14:20:23 14:25:05 33° 67° (ENE) 14:29:48 436.925 FM
AO-7 25 Oct 14:27:58 14:33:55 23° 50° (NE) 14:39:53 29.400 - 29.500 MHz
JAS-1B 25 Oct 14:30:17 14:36:00 48° 260° (W) 14:41:29 435.800 - 435.900 CW/SSB
AO-27 25 Oct 14:31:15 14:36:27 79° 256° (WSW) 14:41:43 436.795 MHz FM
SO-50 25 Oct 14:36:34 14:40:17 24° 318° (NW) 14:44:06 436.795 FM
PCSat 25 Oct 14:37:06 14:40:55 20° 254° (WSW) 14:44:43 145.825 MHz
AO-Echo 25 Oct 14:48:12 14:52:51 44° 262° (W) 14:57:41 ?
KITSAT 1 25 Oct 14:54:58 15:01:29 26° 325° (NW) 15:08:01 435.175 FM
Uosat F 25 Oct 14:58:27 15:00:15 12° 57° (ENE) 15:02:04 435.120 FM
Oscar 16 25 Oct 14:59:55 15:03:31 19° 268° (W) 15:07:07 437.025 USB, Beacon 2401.1428
Uribyol 2 25 Oct 15:19:37 15:24:04 28° 265° (W) 15:28:34 436.500 FM
ITAMSAT 1 25 Oct 15:25:59 15:30:19 26° 265° (W) 15:34:41 435.822 SSB
ISS 25 Oct 15:36:59 15:39:30 19° 353° (N) 15:42:01 145.800 FM
Saudisat 1A 25 Oct 15:38:58 15:42:59 32° 47° (NE) 15:46:58 436.775 MHz
Gurwin Techsat 1B 25 Oct 15:49:34 15:54:13 31° 264° (W) 15:58:55 435.225 FM
UOSAT-12 25 Oct 15:55:43 16:00:01 36° 313° (NW) 16:04:23 437.025 FM, 437.400 FM
TMSAT-1 25 Oct 16:00:13 16:04:57 33° 264° (W) 16:09:44 436.925 FM
AO-7 25 Oct 16:17:22 16:25:39 89° 71° (ENE) 16:33:59 29.400 - 29.500 MHz
AO-40 25 Oct 16:31:45 23:07:54 39° 185° (S) 04:45:59 Beacon 2401.320
Uosat F 25 Oct 16:33:13 16:38:14 85° 75° (ENE) 16:43:18 435.120 FM
KITSAT 1 25 Oct 16:56:44 17:00:22 13° 355° (N) 17:04:00 435.175 FM
JAS-2 25 Oct 17:07:24 17:13:10 49° 67° (ENE) 17:19:41 435.800 - 435.900 CW/SSB, 435.910 FM
ISS 25 Oct 17:14:17 17:17:01 23° 13° (NNE) 17:19:45 145.800 FM
Hamsat 25 Oct 17:16:06 17:19:42 28° 69° (ENE) 17:23:17 145.90 MHz
Saudisat 1A 25 Oct 17:18:35 17:22:30 31° 245° (WSW) 17:26:23 436.775 MHz
AO-7 25 Oct 18:13:54 18:19:26 19° 270° (W) 18:25:01 29.400 - 29.500 MHz
Uosat F 25 Oct 18:16:06 18:17:40 11° 272° (W) 18:19:14 435.120 FM
OPAL 25 Oct 18:16:40 18:21:36 61° 104° (ESE) 18:26:29 ?
ISS 25 Oct 18:50:45 18:54:06 80° 32° (NNE) 18:57:26 145.800 FM
Hamsat 25 Oct 18:52:07 18:55:37 25° 265° (W) 18:59:07 145.90 MHz
JAS-2 25 Oct 18:53:25 18:58:32 29° 269° (W) 19:04:15 435.800 - 435.900 CW/SSB, 435.910 FM
KITSAT 1 25 Oct 18:54:06 18:59:41 20° 26° (NNE) 19:05:13 435.175 FM
SO-67 25 Oct 19:30:00 19:33:24 63° 259° (W) 19:36:50 435.3500 MHz FM
SO-50 25 Oct 19:46:34 19:48:51 13° 32° (NNE) 19:51:08 436.795 FM
OPAL 25 Oct 19:56:43 20:00:00 18° 301° (WNW) 20:03:17 ?
HO-68 25 Oct 19:58:21 20:04:36 34° 61° (ENE) 20:10:54 435.675 MHz FM
STRAND 1 25 Oct 20:02:22 20:07:34 85° 105° (ESE) 20:12:42 ?
ISS 25 Oct 20:28:38 20:30:22 14° 229° (SW) 20:32:06 145.800 FM
UKube-1 25 Oct 20:31:05 20:33:15 14° 61° (ENE) 20:35:26 145.840 MHz, 145.915 MHz
KITSAT 1 25 Oct 20:49:05 20:57:03 57° 51° (NE) 21:04:57 435.175 FM
RS-15 25 Oct 21:05:30 21:14:18 29° 104° (ESE) 21:23:00 29.354 - 29.394 USB, Beacon 29.352 USB
Oscar 11 25 Oct 21:09:57 21:13:39 29° 68° (ENE) 21:17:23 145.825 FM, Beacon 2401.500 USB
FUNcube-1 25 Oct 21:11:44 21:14:13 15° 63° (ENE) 21:16:41 145.950 - 145.970 MHz USB
SO-50 25 Oct 21:25:36 21:30:24 60° 53° (NE) 21:35:13 436.795 FM
STRAND 1 25 Oct 21:43:28 21:46:02 14° 302° (WNW) 21:48:35 ?
HO-68 25 Oct 21:45:08 21:52:03 51° 260° (W) 21:59:02 435.675 MHz FM
ZACube-1 25 Oct 22:01:15 22:05:36 44° 72° (ENE) 22:09:54 437.345 MHz
UKube-1 25 Oct 22:04:36 22:08:54 65° 258° (WSW) 22:13:16 145.840 MHz, 145.915 MHz
MaSat-1 25 Oct 22:41:42 22:43:09 12° 105° (ESE) 22:44:34 437.345 MHz
UOSAT-12 25 Oct 22:44:09 22:48:34 37° 48° (NE) 22:52:55 437.025 FM, 437.400 FM
KITSAT 1 25 Oct 22:44:58 22:52:06 36° 252° (WSW) 22:59:12 435.175 FM
FUNcube-1 25 Oct 22:45:33 22:50:05 64° 259° (W) 22:54:35 145.950 - 145.970 MHz USB
Oscar 11 25 Oct 22:46:08 22:49:48 27° 265° (W) 22:53:29 145.825 FM, Beacon 2401.500 USB
SO-50 25 Oct 23:07:11 23:10:32 19° 250° (WSW) 23:13:53 436.795 FM
RS-15 25 Oct 23:14:28 23:25:29 79° 306° (NW) 23:36:30 29.354 - 29.394 USB, Beacon 29.352 USB
ZACube-1 25 Oct 23:38:56 23:42:11 19° 268° (W) 23:45:25 437.345 MHz
MaSat-1 26 Oct 00:14:23 00:18:25 60° 298° (WNW) 00:22:04 437.345 MHz
UOSAT-12 26 Oct 00:24:32 00:28:36 29° 246° (WSW) 00:32:36 437.025 FM, 437.400 FM
RS-15 26 Oct 01:30:34 01:39:52 31° 334° (NNW) 01:49:18 29.354 - 29.394 USB, Beacon 29.352 USB
Oscar 16 26 Oct 01:30:37 01:34:02 18° 91° (E) 01:37:26 437.025 USB, Beacon 2401.1428
Oscar 10/S400 26 Oct 01:50:55 02:40:30 16° 245° (WSW) 04:15:00 145.825 - 145.975 CW/USB, Beacon 145.810 USB
Uribyol 2 26 Oct 01:53:37 01:55:31 12° 88° (E) 01:57:24 436.500 FM
ITAMSAT 1 26 Oct 01:59:34 02:01:55 13° 89° (E) 02:04:15 435.822 SSB
JAS-1B 26 Oct 02:10:46 02:17:11 43° 99° (E) 02:24:44 435.800 - 435.900 CW/SSB
Oscar 19 26 Oct 02:22:42 02:27:43 53° 100° (E) 02:32:42 437.125 CW, 437.150 USB
Gurwin Techsat 1B 26 Oct 02:26:25 02:28:39 13° 88° (E) 02:30:53 435.225 FM
TMSAT-1 26 Oct 02:37:19 02:39:02 12° 87° (E) 02:40:46 436.925 FM
AO-27 26 Oct 02:43:38 02:48:25 35° 97° (E) 02:53:08 436.795 MHz FM
AO-Echo 26 Oct 02:53:55 02:59:10 58° 100° (E) 03:04:23 ?
Oscar 16 26 Oct 03:08:44 03:13:46 58° 288° (WNW) 03:18:46 437.025 USB, Beacon 2401.1428
Sapphire 26 Oct 03:13:40 03:18:11 28° 109° (ESE) 03:22:44 437.095 MHz 1200 baud AX-25 AFSK
Uribyol 2 26 Oct 03:30:25 03:35:39 85° 285° (WNW) 03:40:51 436.500 FM
PCSat 26 Oct 03:35:17 03:40:25 46° 113° (ESE) 03:45:36 145.825 MHz
ITAMSAT 1 26 Oct 03:36:46 03:42:01 80° 286° (WNW) 03:47:13 435.822 SSB
RS-15 26 Oct 03:48:32 03:57:01 24° 10° (N) 04:05:39 29.354 - 29.394 USB, Beacon 29.352 USB
OPAL 26 Oct 03:55:57 03:59:16 18° 59° (ENE) 04:02:35 ?
JAS-1B 26 Oct 04:01:42 04:07:45 39° 293° (WNW) 04:14:48 435.800 - 435.900 CW/SSB
Oscar 19 26 Oct 04:02:57 04:06:40 21° 298° (WNW) 04:10:24 437.125 CW, 437.150 USB
Gurwin Techsat 1B 26 Oct 04:03:56 04:09:17 83° 285° (WNW) 04:14:35 435.225 FM
TMSAT-1 26 Oct 04:14:19 04:19:40 89° 284° (WNW) 04:24:58 436.925 FM
AO-7 26 Oct 04:18:34 04:25:28 28° 94° (E) 04:32:19 29.400 - 29.500 MHz
AO-27 26 Oct 04:23:16 04:27:50 31° 294° (WNW) 04:32:23 436.795 MHz FM
AO-Echo 26 Oct 04:33:37 04:37:29 21° 298° (WNW) 04:41:21 ?
Uosat F 26 Oct 04:40:37 04:44:42 24° 94° (E) 04:48:45 435.120 FM
Sapphire 26 Oct 04:56:12 05:01:22 45° 307° (NW) 05:06:36 437.095 MHz 1200 baud AX-25 AFSK
Uribyol 2 26 Oct 05:12:12 05:14:18 13° 303° (WNW) 05:16:24 436.500 FM
ITAMSAT 1 26 Oct 05:18:52 05:20:38 12° 304° (NW) 05:22:25 435.822 SSB
PCSat 26 Oct 05:19:18 05:24:01 30° 312° (NW) 05:28:46 145.825 MHz
OPAL 26 Oct 05:32:32 05:37:39 67° 256° (WSW) 05:42:43 ?
STRAND 1 26 Oct 05:42:15 05:45:42 19° 61° (ENE) 05:49:10 ?
Gurwin Techsat 1B 26 Oct 05:46:16 05:48:24 13° 303° (WNW) 05:50:32 435.225 FM
TMSAT-1 26 Oct 05:56:21 05:58:48 13° 302° (WNW) 06:01:15 436.925 FM
JAS-2 26 Oct 05:59:33 06:07:01 47° 97° (E) 06:14:25 435.800 - 435.900 CW/SSB, 435.910 FM
RS-15 26 Oct 06:02:22 06:13:01 48° 42° (NE) 06:24:03 29.354 - 29.394 USB, Beacon 29.352 USB
AO-7 26 Oct 06:10:34 06:18:49 68° 293° (WNW) 06:27:02 29.400 - 29.500 MHz
Uosat F 26 Oct 06:18:53 06:23:38 42° 291° (WNW) 06:28:21 435.120 FM
Hamsat 26 Oct 06:35:50 06:39:56 50° 99° (E) 06:44:02 145.90 MHz
Sapphire 26 Oct 06:45:01 06:46:16 11° 329° (NNW) 06:47:30 437.095 MHz 1200 baud AX-25 AFSK
STRAND 1 26 Oct 07:19:19 07:24:24 62° 258° (WSW) 07:29:31 ?
Saudisat 1A 26 Oct 07:25:10 07:29:25 52° 119° (ESE) 07:33:42 436.775 MHz
JAS-2 26 Oct 07:44:43 07:51:52 42° 295° (WNW) 07:59:04 435.800 - 435.900 CW/SSB, 435.910 FM
AO-7 26 Oct 08:05:16 08:10:06 17° 314° (NW) 08:14:58 29.400 - 29.500 MHz
Hamsat 26 Oct 08:12:59 08:15:29 16° 296° (WNW) 08:18:00 145.90 MHz
RS-15 26 Oct 08:14:54 08:25:45 59° 246° (WSW) 08:37:05 29.354 - 29.394 USB, Beacon 29.352 USB
MaSat-1 26 Oct 08:24:34 08:26:21 16° 53° (NE) 08:28:02 437.345 MHz
SO-67 26 Oct 08:25:06 08:28:31 60° 285° (WNW) 08:31:54 435.3500 MHz FM
Saudisat 1A 26 Oct 09:05:49 09:09:16 22° 318° (NW) 09:12:44 436.775 MHz
HO-68 26 Oct 09:11:54 09:18:08 31° 95° (E) 09:24:18 435.675 MHz FM
UKube-1 26 Oct 09:52:36 09:55:48 20° 94° (E) 09:58:59 145.840 MHz, 145.915 MHz
MaSat-1 26 Oct 10:00:19 10:01:45 14° 254° (WSW) 10:03:08 437.345 MHz
Oscar 11 26 Oct 10:31:58 10:36:10 49° 100° (E) 10:40:20 145.825 FM, Beacon 2401.500 USB
RS-15 26 Oct 10:32:47 10:35:38 11° 266° (W) 10:38:31 29.354 - 29.394 USB, Beacon 29.352 USB
FUNcube-1 26 Oct 10:34:32 10:37:50 22° 93° (E) 10:41:05 145.950 - 145.970 MHz USB
PCSat 26 Oct 10:41:02 10:42:30 11° 31° (NNE) 10:43:59 145.825 MHz
HO-68 26 Oct 10:59:09 11:06:07 54° 293° (WNW) 11:13:03 435.675 MHz FM
